Galveston, TX

6:25 AM CDT on April 30, 2017 (GMT -0500)
Scholes International At Galveston

Weather History for KGLS - April, 2014

Change the Weather History Date:

Tuesday, April 22, 2014

  Actual Average Record
Temperature  
Mean Temperature 74 °F 72 °F  
Max Temperature 80 °F 77 °F 85 °F (2006)
Min Temperature 68 °F 66 °F 48 °F (1884)
Degree Days  
Heating Degree Days 0 0  
Month to date heating degree days 20 16  
Since 1 July heating degree days 1425 1007  
Cooling Degree Days 9 7  
Month to date cooling degree days 77 110  
Year to date cooling degree days 105 180  
Growing Degree Days 24 (Base 50)    
Moisture  
Dew Point 69 °F    
Average Humidity 85    
Maximum Humidity 100    
Minimum Humidity 69    
Precipitation  
Precipitation 0.00 in 0.11 in 9.22 in (1904)
Month to date precipitation 0.10 2.40  
Year to date precipitation 4.97 12.33  
Snow  
Snow 0.00 in - - ()
Month to date snowfall 0.0  
Since 1 July snowfall T 0.0  
Snow Depth 0.00 in    
Sea Level Pressure  
Sea Level Pressure 29.98 in    
Wind  
Wind Speed 8 mph (SW)    
Max Wind Speed 12 mph    
Max Gust Speed 15 mph    
Visibility 10 miles    
Events Rain    
T = Trace of Precipitation, MM = Missing Value Source: NWS Daily Summary

Daily Weather History Graph

Daily Weather History Graph

Search for Another Location

Airport or City:

Trip Planner

Search our weather history database for the weather conditions in past years. The results will help you decide how hot, cold, wet, or windy it might be!

Date:

Astronomy

Apr. 22, 2014 Rise Set
Actual Time 6:46 AM CDT 7:50 PM CDT
Civil Twilight 6:21 AM CDT 8:14 PM CDT
Nautical Twilight 5:52 AM CDT 8:44 PM CDT
Astronomical Twilight 5:22 AM CDT 9:14 PM CDT
Moon 2:03 AM CDT (4/22) 1:23 PM CDT (4/22)
Length of Visible Light 13h 53m
Length of Day
13h 04m
Last Quarter, 46% of the Moon is Illuminated
Apr 22
Last Quarter
Apr 29
New
May 6
First Quarter
May 14
Full
May 21
Last Quarter

Hourly Weather History & Observations

Time (CDT) Temp. Heat Index Dew Point Humidity Pressure Visibility Wind Dir Wind Speed Gust Speed Precip Events Conditions
12:52 AM 69.1 °F - 68.0 °F 96% 30.01 in 10.0 mi South 9.2 mph - N/A   Clear
1:52 AM 69.1 °F - 66.9 °F 93% 30.01 in 10.0 mi SSW 6.9 mph - N/A   Clear
2:52 AM 69.1 °F - 68.0 °F 96% 29.99 in 10.0 mi SSW 11.5 mph - N/A   Clear
3:22 AM 69.1 °F - 68.0 °F 96% 29.99 in 10.0 mi SW 8.1 mph - N/A   Partly Cloudy
3:39 AM 69.1 °F - 68.0 °F 96% 29.99 in 10.0 mi SSW 8.1 mph - N/A   Mostly Cloudy
3:52 AM 69.1 °F - 68.0 °F 96% 29.99 in 10.0 mi SW 9.2 mph - N/A   Mostly Cloudy
4:22 AM 69.1 °F - 68.0 °F 96% 29.99 in 10.0 mi SSW 9.2 mph - N/A   Scattered Clouds
4:40 AM 69.1 °F - 68.0 °F 96% 29.99 in 10.0 mi SW 10.4 mph - N/A   Mostly Cloudy
4:52 AM 69.1 °F - 68.0 °F 96% 29.99 in 10.0 mi SW 9.2 mph - N/A   Mostly Cloudy
5:05 AM 69.1 °F - 68.0 °F 96% 29.99 in 10.0 mi SSW 8.1 mph - N/A   Mostly Cloudy
5:13 AM 69.1 °F - 68.0 °F 96% 29.98 in 10.0 mi SSW 9.2 mph - N/A   Partly Cloudy
5:52 AM 68.0 °F - 68.0 °F 100% 29.98 in 10.0 mi SW 6.9 mph - N/A   Clear
6:22 AM 69.1 °F - 68.0 °F 96% 29.98 in 10.0 mi SW 8.1 mph - N/A   Mostly Cloudy
6:52 AM 69.1 °F - 68.0 °F 96% 29.99 in 10.0 mi SW 6.9 mph - N/A   Mostly Cloudy
7:52 AM 70.0 °F - 69.1 °F 97% 30.01 in 10.0 mi WSW 4.6 mph - N/A   Overcast
8:43 AM 71.1 °F - 70.0 °F 96% 30.01 in 10.0 mi West 5.8 mph - N/A   Overcast
8:52 AM 71.1 °F - 68.0 °F 90% 30.01 in 10.0 mi Variable 5.8 mph - N/A   Overcast
9:22 AM 71.1 °F - 69.1 °F 93% 30.02 in 10.0 mi Variable 4.6 mph - N/A   Overcast
9:44 AM 72.0 °F - 69.1 °F 91% 30.02 in 10.0 mi West 4.6 mph - N/A   Overcast
9:52 AM 72.0 °F - 69.1 °F 91% 30.02 in 10.0 mi West 5.8 mph - N/A   Overcast
10:52 AM 71.1 °F - 68.0 °F 90% 30.02 in 8.0 mi WNW 3.5 mph - N/A   Overcast
11:09 AM 71.1 °F - 68.0 °F 90% 30.02 in 3.0 mi WNW 5.8 mph - 0.00 in Rain Light Rain
11:36 AM 72.0 °F - 70.0 °F 93% 30.02 in 10.0 mi West 4.6 mph - 0.00 in   Overcast
11:52 AM 73.9 °F - 70.0 °F 87% 30.01 in 10.0 mi West 5.8 mph - 0.00 in   Overcast
12:52 PM 77.0 °F - 69.1 °F 76% 29.99 in 10.0 mi WNW 5.8 mph - N/A   Scattered Clouds
1:17 PM 78.1 °F - 69.1 °F 74% 29.99 in 10.0 mi WNW 5.8 mph - N/A   Mostly Cloudy
1:52 PM 80.1 °F 82.9 °F 69.1 °F 69% 29.98 in 10.0 mi North 8.1 mph - N/A   Mostly Cloudy
2:52 PM 75.0 °F - 70.0 °F 84% 29.97 in 10.0 mi South 9.2 mph - N/A   Mostly Cloudy
3:23 PM 75.0 °F - 71.1 °F 87% 29.96 in 10.0 mi SSE 9.2 mph - N/A   Scattered Clouds
3:52 PM 75.0 °F - 71.1 °F 87% 29.95 in 10.0 mi South 8.1 mph - N/A   Scattered Clouds
3:59 PM 75.0 °F - 70.0 °F 84% 29.95 in 10.0 mi South 9.2 mph - N/A   Mostly Cloudy
4:44 PM 75.0 °F - 70.0 °F 84% 29.94 in 10.0 mi South 9.2 mph - N/A   Partly Cloudy
4:52 PM 75.0 °F - 70.0 °F 84% 29.94 in 10.0 mi South 10.4 mph - N/A   Partly Cloudy
5:52 PM 73.9 °F - 70.0 °F 87% 29.92 in 7.0 mi South 10.4 mph - N/A   Clear
6:52 PM 73.0 °F - 69.1 °F 87% 29.91 in 10.0 mi South 10.4 mph - N/A   Clear
7:52 PM 71.1 °F - 70.0 °F 96% 29.91 in 10.0 mi SSW 11.5 mph - N/A   Clear
8:52 PM 71.1 °F - 70.0 °F 96% 29.93 in 10.0 mi SSW 6.9 mph - N/A   Clear
9:52 PM 71.1 °F - 70.0 °F 96% 29.95 in 10.0 mi SSW 8.1 mph - N/A   Clear
10:00 PM 71.1 °F - 70.0 °F 96% 29.95 in 10.0 mi SSW 6.9 mph - N/A   Partly Cloudy
10:52 PM 70.0 °F - 70.0 °F 100% 29.95 in 10.0 mi SSW 6.9 mph - N/A   Partly Cloudy
11:52 PM 70.0 °F - 70.0 °F 100% 29.96 in 10.0 mi SW 6.9 mph - N/A   Clear